Retour au catalogue

ICON

ActifScienceVLEO
NORAD 44628·PAYLOAD·🇺🇸 United States

Lancé Oct 11, 2019 depuis Cape Canaveral Space Force Station

Loading…

Prochains Passages (prochaines 24 heures)

TLE

FraisSource: Space-Track

Époque: Sep 13, 2026, 22:54 UTC

1 44628U 19068A   26256.95476586  .00003279  00000-0  19558-3 0  9991
2 44628  26.9830 149.8805 0013571 120.1442 240.0466 15.07433352379442

Suivez ICON en temps réel avec AllMySat

Download on the App Store